| time (UTC) | temp F | wind direction | speed knots | gust knots | rain 1hr in | rain 24hr in | rain mn in | humidity % | barometer mb |
| 20260503200118 | 53 | 178 | 3.5 | 13.0 | 0.00 | 0.00 | 0.00 | 48 | 1016.4 |
| 20260503195558 | 54 | 198 | 3.5 | 13.9 | 0.00 | 0.00 | 0.00 | 46 | 1016.4 |
| 20260503195058 | 55 | 181 | 3.5 | 17.4 | 0.00 | 0.00 | 0.00 | 42 | 1016.4 |
| 20260503194604 | 55 | 139 | 7.0 | 17.4 | 0.00 | 0.00 | 0.00 | 37 | 1016.4 |
| 20260503194058 | 55 | 136 | 8.7 | 18.2 | 0.00 | 0.00 | 0.00 | 37 | 1016.4 |
| 20260503193559 | 55 | 124 | 9.6 | 19.1 | 0.00 | 0.00 | 0.00 | 37 | 1016.4 |
| 20260503193104 | 55 | 119 | 5.2 | 19.1 | 0.00 | 0.00 | 0.00 | 38 | 1016.4 |
| 20260503192558 | 55 | 143 | 11.3 | 24.3 | 0.00 | 0.00 | 0.00 | 38 | 1016.5 |
| 20260503192058 | 56 | 98 | 10.4 | 24.3 | 0.00 | 0.00 | 0.00 | 37 | 1016.4 |
| 20260503191606 | 57 | 150 | 8.7 | 19.1 | 0.00 | 0.00 | 0.00 | 36 | 1016.4 |
| 20260503191059 | 57 | 209 | 8.7 | 19.1 | 0.00 | 0.00 | 0.00 | 35 | 1016.2 |
| 20260503190558 | 57 | 141 | 7.0 | 20.0 | 0.00 | 0.00 | 0.00 | 36 | 1016.0 |
| 20260503190056 | 57 | 142 | 11.3 | 25.2 | 0.00 | 0.00 | 0.00 | 35 | 1016.0 |
| 20260503185558 | 58 | 153 | 12.2 | 25.2 | 0.00 | 0.00 | 0.00 | 34 | 1016.1 |
| 20260503185059 | 59 | 177 | 11.3 | 25.2 | 0.00 | 0.00 | 0.00 | 33 | 1016.1 |
| 20260503184626 | 59 | 132 | 12.2 | 25.2 | 0.00 | 0.00 | 0.00 | 34 | 1016.1 |
| 20260503184059 | 58 | 162 | 9.6 | 20.0 | 0.00 | 0.00 | 0.00 | 34 | 1016.2 |
| 20260503183559 | 58 | 113 | 11.3 | 20.0 | 0.00 | 0.00 | 0.00 | 35 | 1016.2 |
| 20260503183101 | 57 | 141 | 10.4 | 20.9 | 0.00 | 0.00 | 0.00 | 35 | 1016.1 |
| 20260503182602 | 58 | 115 | 10.4 | 20.9 | 0.00 | 0.00 | 0.00 | 35 | 1016.3 |
| 20260503182058 | 58 | 86 | 9.6 | 20.9 | 0.00 | 0.00 | 0.00 | 36 | 1016.3 |
| 20260503181614 | 59 | 91 | 7.8 | 15.6 | 0.00 | 0.00 | 0.00 | 34 | 1016.2 |
| 20260503181101 | 58 | 230 | 7.0 | 16.5 | 0.00 | 0.00 | 0.00 | 36 | 1016.3 |
| 20260503180600 | 58 | 81 | 7.0 | 16.5 | 0.00 | 0.00 | 0.00 | 36 | 1016.4 |
| 20260503180116 | 58 | 150 | 8.7 | 18.2 | 0.00 | 0.00 | 0.00 | 36 | 1016.5 |
| 20260503175557 | 58 | 77 | 7.8 | 20.0 | 0.00 | 0.00 | 0.00 | 35 | 1016.7 |
| 20260503175058 | 57 | 101 | 5.2 | 20.9 | 0.00 | 0.00 | 0.00 | 37 | 1016.8 |
| 20260503174559 | 57 | 136 | 9.6 | 20.9 | 0.00 | 0.00 | 0.00 | 37 | 1016.8 |
| 20260503174058 | 58 | 49 | 7.0 | 18.2 | 0.00 | 0.00 | 0.00 | 36 | 1016.8 |
| 20260503173558 | 58 | 103 | 7.8 | 18.2 | 0.00 | 0.00 | 0.00 | 36 | 1016.8 |
| 20260503173106 | 58 | 18 | 5.2 | 13.0 | 0.00 | 0.00 | 0.00 | 36 | 1016.6 |
| 20260503172558 | 57 | 75 | 6.1 | 17.4 | 0.00 | 0.00 | 0.00 | 36 | 1016.6 |
| 20260503172058 | 56 | 115 | 6.1 | 17.4 | 0.00 | 0.00 | 0.00 | 36 | 1016.8 |
| 20260503171559 | 57 | 94 | 7.8 | 19.1 | 0.00 | 0.00 | 0.00 | 34 | 1016.8 |
| 20260503171058 | 58 | 89 | 7.8 | 19.1 | 0.00 | 0.00 | 0.00 | 35 | 1016.8 |
| 20260503170559 | 58 | 140 | 5.2 | 13.9 | 0.00 | 0.00 | 0.00 | 36 | 1016.6 |
| 20260503150558 | 43 | 0 | 0.0 | 1.7 | 0.00 | 0.00 | 0.00 | 78 | 1018.1 |
| 20260503150109 | 43 | 0 | 0.0 | 1.7 | 0.00 | 0.00 | 0.00 | 78 | 1018.1 |
| 20260503131058 | 33 | 0 | 0.0 | 0.9 | 0.00 | 0.00 | 0.00 | 90 | 1018.1 |
| 20260503130559 | 33 | 176 | 0.0 | 0.9 | 0.00 | 0.00 | 0.00 | 87 | 1018.1 |
| 20260503110557 | 36 | 0 | 0.0 | 0.0 | 0.00 | 0.00 | 0.00 | 79 | 1018.5 |
| 20260503100116 | 38 | 0 | 0.9 | 2.6 | 0.00 | 0.00 | 0.00 | 75 | 1019.0 |
| 20260503081557 | 41 | 0 | 0.0 | 0.9 | 0.00 | 0.00 | 0.00 | 73 | 1019.4 |
| 20260503081057 | 41 | 0 | 0.0 | 1.7 | 0.00 | 0.00 | 0.00 | 73 | 1019.5 |
| 20260503080558 | 41 | 0 | 0.9 | 1.7 | 0.00 | 0.00 | 0.00 | 72 | 1019.4 |
| 20260503080107 | 42 | 176 | 0.0 | 1.7 | 0.00 | 0.00 | 0.00 | 71 | 1019.5 |
| 20260503072557 | 43 | 0 | 0.0 | 1.7 | 0.00 | 0.00 | 0.00 | 70 | 1019.8 |
| 20260503072059 | 43 | 167 | 0.9 | 1.7 | 0.00 | 0.00 | 0.00 | 66 | 1019.7 |
| 20260503071602 | 43 | 176 | 0.0 | 1.7 | 0.00 | 0.00 | 0.00 | 67 | 1019.8 |
| 20260503071102 | 43 | 179 | 0.0 | 1.7 | 0.00 | 0.00 | 0.00 | 66 | 1019.7 |
| 20260503070557 | 44 | 150 | 0.0 | 0.0 | 0.00 | 0.00 | 0.00 | 66 | 1019.7 |
| 20260503070104 | 44 | 0 | 0.0 | 0.0 | 0.00 | 0.00 | 0.00 | 65 | 1019.8 |
| 20260503055100 | 47 | 166 | 0.9 | 1.7 | 0.00 | 0.00 | 0.00 | 61 | 1020.0 |
| 20260503054600 | 47 | 176 | 0.9 | 1.7 | 0.00 | 0.00 | 0.00 | 61 | 1020.0 |
| 20260503054057 | 47 | 0 | 0.0 | 0.9 | 0.00 | 0.00 | 0.00 | 61 | 1020.0 |
| 20260503053558 | 47 | 172 | 0.9 | 0.9 | 0.00 | 0.00 | 0.00 | 60 | 1019.9 |
| 20260503053056 | 48 | 245 | 0.0 | 0.9 | 0.00 | 0.00 | 0.00 | 60 | 1019.9 |
| 20260503052558 | 48 | 0 | 0.0 | 3.5 | 0.00 | 0.00 | 0.00 | 60 | 1020.0 |
| 20260503052100 | 48 | 46 | 0.0 | 4.3 | 0.00 | 0.00 | 0.00 | 60 | 1019.9 |
| 20260503051558 | 48 | 0 | 1.7 | 4.3 | 0.00 | 0.00 | 0.00 | 60 | 1019.9 |
| 20260503051057 | 48 | 78 | 1.7 | 3.5 | 0.00 | 0.00 | 0.00 | 57 | 1019.8 |
| 20260503050558 | 48 | 0 | 0.0 | 1.7 | 0.00 | 0.00 | 0.00 | 57 | 1019.7 |
| 20260503050056 | 48 | 205 | 0.9 | 0.9 | 0.00 | 0.00 | 0.00 | 58 | 1019.7 |
| 20260503045600 | 48 | 0 | 0.0 | 0.9 | 0.00 | 0.00 | 0.00 | 58 | 1019.7 |
| 20260503045059 | 48 | 158 | 0.0 | 0.9 | 0.00 | 0.00 | 0.00 | 57 | 1019.7 |
| 20260503044608 | 49 | 0 | 0.0 | 0.9 | 0.00 | 0.00 | 0.00 | 57 | 1019.5 |
| 20260503044057 | 50 | 0 | 0.0 | 0.9 | 0.00 | 0.00 | 0.00 | 56 | 1019.5 |
| 20260503043557 | 50 | 0 | 0.0 | 2.6 | 0.00 | 0.00 | 0.00 | 55 | 1019.5 |
| 20260503043058 | 51 | 0 | 0.0 | 2.6 | 0.00 | 0.00 | 0.00 | 54 | 1019.5 |
| 20260503042557 | 51 | 194 | 0.0 | 2.6 | 0.00 | 0.00 | 0.00 | 55 | 1019.6 |
| 20260503042058 | 52 | 0 | 0.0 | 2.6 | 0.00 | 0.00 | 0.00 | 54 | 1019.5 |
| 20260503041601 | 52 | 229 | 0.0 | 2.6 | 0.00 | 0.00 | 0.00 | 53 | 1019.6 |
| 20260503041059 | 52 | 0 | 0.9 | 1.7 | 0.00 | 0.00 | 0.00 | 52 | 1019.5 |
| 20260503040559 | 52 | 0 | 0.0 | 0.9 | 0.00 | 0.00 | 0.00 | 52 | 1019.7 |
| 20260503040104 | 52 | 0 | 0.0 | 0.9 | 0.00 | 0.00 | 0.00 | 52 | 1019.7 |
| 20260503035558 | 53 | 0 | 0.0 | 2.6 | 0.00 | 0.00 | 0.00 | 52 | 1019.7 |
| 20260503035101 | 53 | 0 | 0.0 | 4.3 | 0.00 | 0.00 | 0.00 | 51 | 1019.6 |
| 20260503034602 | 53 | 57 | 2.6 | 5.2 | 0.00 | 0.00 | 0.00 | 51 | 1019.7 |
| 20260503034058 | 53 | 52 | 3.5 | 5.2 | 0.00 | 0.00 | 0.00 | 51 | 1019.3 |
| 20260503033601 | 53 | 336 | 1.7 | 5.2 | 0.00 | 0.00 | 0.00 | 46 | 1019.4 |
| 20260503033058 | 53 | 75 | 2.6 | 4.3 | 0.00 | 0.00 | 0.00 | 50 | 1019.3 |
| 20260503032558 | 52 | 243 | 0.0 | 4.3 | 0.00 | 0.00 | 0.00 | 52 | 1019.2 |
| 20260503032100 | 52 | 0 | 0.0 | 4.3 | 0.00 | 0.00 | 0.00 | 53 | 1019.6 |
| 20260503031559 | 52 | 41 | 1.7 | 3.5 | 0.00 | 0.00 | 0.00 | 54 | 1019.6 |
| 20260503031058 | 52 | 0 | 0.0 | 5.2 | 0.00 | 0.00 | 0.00 | 56 | 1019.6 |
| 20260503030557 | 52 | 229 | 1.7 | 5.2 | 0.00 | 0.00 | 0.00 | 54 | 1019.5 |
| 20260503030126 | 52 | 218 | 1.7 | 12.2 | 0.00 | 0.00 | 0.00 | 56 | 1019.4 |
| 20260503025558 | 52 | 0 | 3.5 | 12.2 | 0.00 | 0.00 | 0.00 | 56 | 1019.3 |
| 20260503025102 | 52 | 240 | 4.3 | 15.6 | 0.00 | 0.00 | 0.00 | 58 | 1019.3 |
| 20260503024604 | 52 | 250 | 5.2 | 15.6 | 0.00 | 0.00 | 0.00 | 56 | 1019.5 |
| 20260503024100 | 53 | 176 | 6.1 | 15.6 | 0.00 | 0.00 | 0.00 | 54 | 1019.3 |
| 20260503023600 | 54 | 140 | 2.6 | 11.3 | 0.00 | 0.00 | 0.00 | 52 | 1019.2 |
| 20260503023055 | 55 | 157 | 5.2 | 12.2 | 0.00 | 0.00 | 0.00 | 49 | 1019.5 |
| 20260503022557 | 55 | 228 | 4.3 | 12.2 | 0.00 | 0.00 | 0.00 | 49 | 1019.4 |
| 20260503022057 | 56 | 150 | 1.7 | 5.2 | 0.00 | 0.00 | 0.00 | 48 | 1019.5 |
| 20260503021606 | 55 | 179 | 1.7 | 4.3 | 0.00 | 0.00 | 0.00 | 49 | 1019.3 |
| 20260503021058 | 55 | 134 | 0.9 | 3.5 | 0.00 | 0.00 | 0.00 | 49 | 1019.3 |
| 20260503020558 | 55 | 130 | 1.7 | 4.3 | 0.00 | 0.00 | 0.00 | 50 | 1019.2 |
| 20260503020055 | 55 | 86 | 0.9 | 5.2 | 0.00 | 0.00 | 0.00 | 50 | 1019.3 |
| 20260503015558 | 56 | 58 | 3.5 | 5.2 | 0.00 | 0.00 | 0.00 | 50 | 1019.1 |
| 20260503015057 | 56 | 73 | 2.6 | 5.2 | 0.00 | 0.00 | 0.00 | 50 | 1019.1 |
| 20260503014605 | 56 | 53 | 1.7 | 6.1 | 0.00 | 0.00 | 0.00 | 52 | 1019.0 |
| 20260503014057 | 56 | 64 | 2.6 | 9.6 | 0.00 | 0.00 | 0.00 | 53 | 1019.0 |
| 20260503013557 | 56 | 60 | 3.5 | 9.6 | 0.00 | 0.00 | 0.00 | 55 | 1018.8 |
| 20260503013056 | 56 | 332 | 1.7 | 3.5 | 0.00 | 0.00 | 0.00 | 52 | 1018.7 |
| 20260503012557 | 57 | 336 | 0.0 | 3.5 | 0.00 | 0.00 | 0.00 | 51 | 1018.7 |
| 20260503012056 | 57 | 6 | 1.7 | 3.5 | 0.00 | 0.00 | 0.00 | 48 | 1018.6 |
| 20260503011600 | 57 | 57 | 1.7 | 4.3 | 0.00 | 0.00 | 0.00 | 47 | 1018.5 |
| 20260503011057 | 57 | 0 | 0.9 | 7.0 | 0.00 | 0.00 | 0.00 | 47 | 1018.6 |
| 20260503010558 | 58 | 245 | 1.7 | 9.6 | 0.00 | 0.00 | 0.00 | 46 | 1018.4 |
| 20260503010109 | 58 | 274 | 0.9 | 9.6 | 0.00 | 0.00 | 0.00 | 45 | 1018.4 |
| 20260503005559 | 58 | 59 | 3.5 | 9.6 | 0.00 | 0.00 | 0.00 | 44 | 1018.4 |
| 20260503005057 | 59 | 296 | 2.6 | 7.8 | 0.00 | 0.00 | 0.00 | 44 | 1018.4 |
| 20260503004600 | 58 | 266 | 2.6 | 7.8 | 0.00 | 0.00 | 0.00 | 46 | 1018.5 |
| 20260503004057 | 57 | 234 | 1.7 | 8.7 | 0.00 | 0.00 | 0.00 | 45 | 1018.7 |
| 20260503003557 | 57 | 191 | 2.6 | 8.7 | 0.00 | 0.00 | 0.00 | 45 | 1018.8 |
| 20260503003113 | 57 | 106 | 2.6 | 10.4 | 0.00 | 0.00 | 0.00 | 42 | 1018.9 |
| 20260503002557 | 58 | 322 | 2.6 | 10.4 | 0.00 | 0.00 | 0.00 | 42 | 1019.2 |
| 20260503002057 | 58 | 195 | 3.5 | 13.9 | 0.00 | 0.00 | 0.00 | 40 | 1018.9 |
| 20260503001555 | 59 | 139 | 1.7 | 13.9 | 0.00 | 0.00 | 0.00 | 39 | 1019.0 |
| 20260503001101 | 59 | 264 | 2.6 | 7.8 | 0.00 | 0.00 | 0.00 | 38 | 1019.2 |
| 20260503000557 | 60 | 220 | 0.9 | 2.6 | 0.00 | 0.00 | 0.00 | 40 | 1018.9 |
| 20260503000058 | 60 | 243 | 0.0 | 1.7 | 0.00 | 0.00 | 0.00 | 41 | 1018.9 |
| 20260502235557 | 60 | 0 | 0.0 | 1.7 | 0.00 | 0.00 | 0.00 | 41 | 1018.8 |
| 20260502235057 | 60 | 0 | 0.0 | 5.2 | 0.00 | 0.00 | 0.00 | 41 | 1018.9 |
| 20260502234556 | 60 | 0 | 0.0 | 5.2 | 0.00 | 0.00 | 0.00 | 40 | 1018.9 |
| 20260502234100 | 60 | 172 | 0.9 | 4.3 | 0.00 | 0.00 | 0.00 | 39 | 1018.9 |
| 20260502233557 | 60 | 252 | 0.0 | 2.6 | 0.00 | 0.00 | 0.00 | 38 | 1018.9 |
| 20260502233103 | 60 | 276 | 0.0 | 3.5 | 0.00 | 0.00 | 0.00 | 39 | 1018.9 |
| 20260502232557 | 60 | 0 | 0.9 | 6.1 | 0.00 | 0.00 | 0.00 | 39 | 1019.1 |
| 20260502232058 | 59 | 163 | 0.0 | 6.1 | 0.00 | 0.00 | 0.00 | 40 | 1019.2 |
| 20260502231606 | 59 | 183 | 1.7 | 6.1 | 0.00 | 0.00 | 0.00 | 40 | 1019.3 |
| 20260502231058 | 59 | 184 | 0.0 | 15.6 | 0.00 | 0.00 | 0.00 | 36 | 1019.4 |
| 20260502230559 | 59 | 257 | 4.3 | 15.6 | 0.00 | 0.00 | 0.00 | 35 | 1019.5 |
| 20260502230055 | 59 | 133 | 10.4 | 21.7 | 0.00 | 0.00 | 0.00 | 36 | 1019.7 |
| 20260502225557 | 61 | 166 | 9.6 | 21.7 | 0.00 | 0.00 | 0.00 | 35 | 1019.7 |
| 20260502225057 | 62 | 272 | 5.2 | 11.3 | 0.00 | 0.00 | 0.00 | 34 | 1019.4 |
| 20260502224557 | 62 | 237 | 0.0 | 5.2 | 0.00 | 0.00 | 0.00 | 35 | 1019.5 |
| 20260502224057 | 62 | 280 | 0.0 | 5.2 | 0.00 | 0.00 | 0.00 | 35 | 1019.7 |
| 20260502223559 | 63 | 176 | 0.9 | 2.6 | 0.00 | 0.00 | 0.00 | 34 | 1019.7 |
| 20260502223055 | 63 | 0 | 0.0 | 2.6 | 0.00 | 0.00 | 0.00 | 32 | 1019.8 |
| 20260502222559 | 63 | 0 | 0.0 | 2.6 | 0.00 | 0.00 | 0.00 | 32 | 1019.9 |
| 20260502222057 | 63 | 0 | 0.0 | 3.5 | 0.00 | 0.00 | 0.00 | 31 | 1019.8 |
| 20260502221555 | 63 | 301 | 0.9 | 3.5 | 0.00 | 0.00 | 0.00 | 34 | 1019.9 |
| 20260502221057 | 63 | 264 | 0.0 | 5.2 | 0.00 | 0.00 | 0.00 | 33 | 1019.8 |
| 20260502220557 | 63 | 192 | 1.7 | 5.2 | 0.00 | 0.00 | 0.00 | 31 | 1020.0 |
| 20260502220055 | 63 | 167 | 0.0 | 7.8 | 0.00 | 0.00 | 0.00 | 30 | 1020.2 |
| 20260502215556 | 62 | 265 | 4.3 | 7.8 | 0.00 | 0.00 | 0.00 | 28 | 1020.2 |
| 20260502215058 | 62 | 155 | 2.6 | 13.9 | 0.00 | 0.00 | 0.00 | 28 | 1020.2 |
| 20260502214559 | 62 | 149 | 6.1 | 13.9 | 0.00 | 0.00 | 0.00 | 28 | 1020.2 |
| 20260502214057 | 62 | 149 | 3.5 | 12.2 | 0.00 | 0.00 | 0.00 | 28 | 1020.1 |
| 20260502213557 | 62 | 134 | 4.3 | 12.2 | 0.00 | 0.00 | 0.00 | 28 | 1020.2 |
| 20260502213054 | 62 | 157 | 6.1 | 12.2 | 0.00 | 0.00 | 0.00 | 28 | 1020.2 |
| 20260502212557 | 62 | 116 | 4.3 | 10.4 | 0.00 | 0.00 | 0.00 | 27 | 1020.2 |
| 20260502212057 | 62 | 107 | 3.5 | 13.9 | 0.00 | 0.00 | 0.00 | 28 | 1020.2 |
| 20260502211556 | 62 | 146 | 6.1 | 15.6 | 0.00 | 0.00 | 0.00 | 27 | 1020.3 |
| 20260502211057 | 62 | 125 | 7.8 | 15.6 | 0.00 | 0.00 | 0.00 | 28 | 1020.3 |
| 20260502210557 | 62 | 59 | 6.1 | 15.6 | 0.00 | 0.00 | 0.00 | 28 | 1020.2 |
| 20260502210057 | 62 | 161 | 5.2 | 10.4 | 0.00 | 0.00 | 0.00 | 28 | 1020.4 |
| 20260502205600 | 62 | 134 | 3.5 | 11.3 | 0.00 | 0.00 | 0.00 | 29 | 1020.4 |
| 20260502205059 | 62 | 65 | 6.1 | 15.6 | 0.00 | 0.00 | 0.00 | 28 | 1020.4 |
| 20260502204610 | 62 | 150 | 7.0 | 15.6 | 0.00 | 0.00 | 0.00 | 28 | 1020.3 |
| 20260502204057 | 62 | 166 | 7.0 | 13.9 | 0.00 | 0.00 | 0.00 | 28 | 1020.4 |
| 20260502203558 | 62 | 52 | 5.2 | 13.9 | 0.00 | 0.00 | 0.00 | 28 | 1020.5 |
| 20260502203115 | 63 | 135 | 7.0 | 13.9 | 0.00 | 0.00 | 0.00 | 27 | 1020.6 |
| 20260502202559 | 63 | 129 | 4.3 | 12.2 | 0.00 | 0.00 | 0.00 | 28 | 1020.6 |
| 20260502202057 | 63 | 100 | 3.5 | 12.2 | 0.00 | 0.00 | 0.00 | 28 | 1020.4 |
| 20260502201557 | 63 | 150 | 5.2 | 12.2 | 0.00 | 0.00 | 0.00 | 28 | 1020.6 |
| 20260502201059 | 61 | 107 | 7.8 | 13.0 | 0.00 | 0.00 | 0.00 | 28 | 1020.5 |
| 20260502200558 | 62 | 131 | 4.3 | 13.0 | 0.00 | 0.00 | 0.00 | 28 | 1020.6 |